Погода в Казаяке

Россия / Республика Башкортостан     54°58′31″N   57°07′53″E
темп.,
°C
ветер,
м/с
пор.,
м/с
влажн.,
%
обл.,
%
осадки,
мм/ч
давл.,
гПа
погр.,
м
15 мая, сб
сб1523:00+16ююв22605 0.0 102411
02:00+15юв1161100 0.0 102411
05:00+14ююв116393 0.0 102411
08:00+19ююз25504 0.0 1024225
11:00+25юз46345 0.0 1023781
14:00+28зюз5727100 0.0 10231562
17:00+28зюз46275 0.0 10221598
20:00+22ююз22505 0.0 102237
16 мая, вс
вс1623:00+17ю226223 0.0 102211
02:00+16ююв117191 0.0 102211
05:00+15ююв11735 0.0 102311
08:00+20ююз13535 0.0 1023189
11:00+26юз343615 0.0 1022806
14:00+29зюз46245 0.0 10212461
17:00+29зюз45263 0.0 10212535
20:00+23ююз22490 0.0 102013
17 мая, пн
пн1723:00+18вюв11600 0.0 102011
02:00+16юв11622 0.0 102111
05:00+15ююв11685 0.0 102111
08:00+21ююз255437 0.0 1022242
11:00+26юз35365 0.0 1021861
14:00+29зюз4631100 0.0 10202486
17:00+28з4531100 0.0 10193090
20:00+23юз11535 0.0 101911
18 мая, вт
вт1823:00+18ю226922 0.0 102025
02:00+15ю2277100 0.0 102019
05:00+14ююз22824 0.2 102015
08:00+19ююз236630 0.1 1020192
11:00+25з23455 0.1 1019669
14:00+28зсз353412 0.0 10182591
17:00+28зсз453157 0.0 10172785
20:00+20в2372100 0.2 101891
19 мая, ср
ср1923:00+16вюв118790 1.4 101911
02:00+15всв22926 1.0 101930
05:00+14всв249399 1.0 101963
08:00+17всв2483100 0.0 1020166
11:00+22в345274 0.0 1020755
14:00+26всв223674 0.0 10192126
17:00+27св223210 0.0 10182483
20:00+15юв298410 1.8 1020393